Regional Weather Roundup
Issued by NWS

Home | Current Version | Previous Version | Graphics & Text | Print | Product List | Glossary On
Versions: 1 2 3 4 5 6 7 8 9 10 11 12 13 14 15 16 17 18 19 20 21 22 23 24 25 26 27 28 29 30 31 32 33 34 35 36 37 38 39 40 41 42 43 44 45 46 47 48
000
ASUS45 KBOI 300210
RWRID
WEATHER ROUNDUP FOR IDAHO
NATIONAL WEATHER SERVICE BOISE ID
800 PM MDT SUN MAR 29 2015

NOTE: "FAIR" INDICATES FEW OR NO CLOUDS BELOW 12000 FEET
WITH NO SIGNIFICANT WEATHER AND/OR OBSTRUCTIONS TO VISIBILITY

IDZ012-014-300300-
SOUTHWEST IDAHO


CITY           SKY/WX    TMP DP  RH WIND       PRES   REMARKS
BOISE          CLEAR     62  26  25 NW6       30.16S
CALDWELL       CLEAR     63  28  27 CALM      30.17F
$$

IDZ016-017-300300-
SOUTHCENTRAL IDAHO


CITY           SKY/WX    TMP DP  RH WIND       PRES   REMARKS
BURLEY         CLEAR     56  21  25 W5        30.17S
JEROME         CLEAR     57  16  20 W3        30.19S
TWIN FALLS     CLEAR     58  19  22 NW5       30.19S
$$

IDZ019>023-300300-
SOUTHEAST IDAHO


CITY           SKY/WX    TMP DP  RH WIND       PRES   REMARKS
IDAHO FALLS    PTCLDY    54  18  24 SW9       30.19S
POCATELLO      CLEAR     54  16  22 SW9       30.19S
REXBURG        CLEAR     54  16  22 S8        30.18F
$$

IDZ006-010-011-018-031-032-300300-
CENTRAL IDAHO MOUNTAINS


CITY           SKY/WX    TMP DP  RH WIND       PRES   REMARKS
MCCALL         CLEAR     52  29  41 CALM      30.20F
HAILEY         PTCLDY    55  27  33 SW9G17    30.20S
STANLEY          N/A     45  23  42 SW7       30.23F
SALMON         CLEAR     54  27  35 S5        30.13R
CHALLIS        CLEAR     57  21  24 SW8       30.15R
$$

IDZ002-004-006-007-026-300300-
NORTHERN IDAHO


CITY           SKY/WX    TMP DP  RH WIND       PRES   REMARKS
LEWISTON       PTCLDY    63  40  42 CALM      30.13F
LOWELL           N/A     50  45  83 N3        30.14S
COEUR D`ALENE  CLOUDY    54  37  54 S8        30.14F
MULLAN PASS    MOCLDY    38  31  76 W6        30.18S WCI  33
$$



USA.gov is the U.S. government's official web portal to all federal, state and local government web resources and services.